Location: Oberstdorf
(47.4188°N, 10.2969°E)
Time: 20:18:33
(UTC+01:00)

ISS - Pass Details

Date: 12 November 2017
Orbit: 401 x 407 km, 51.6° (Epoch: 18 November)

Event Time Altitude Azimuth Distance (km) Brightness Sun altitude
Exits shadow 04:20:13 12° 68° (ENE) 1,321 -0.5 -30.2°
Drops below altitude 10° 04:20:35 10° 70° (ENE) 1,457 -0.2 -30.2°
Sets 04:22:46 0° 79° (E) 2,316 1.2 -29.8°
